Probability
0 0 0 0 0 0 0 0 0 0 0 0 0 0 0 0 0 0 0 0 0 0 0 0 0 1 4 6 6 6 6 6 6 6 6 4 1 0 0 0 0 0 1 0
0 0 0 0 0 0 0 0 0 0 0 0 0 0 0 0 0 0 0 0 0 0 0 0 0 1 3 6 6 6 6 7 7 7 6 5 2 0 0 0 0 1 1 1
0 0 0 0 0 0 0 0 0 0 0 0 0 0 0 0 0 0 0 0 0 0 0 0 0 0 2 5 6 6 6 7 8 7 6 6 3 1 0 0 0 1 2 1
0 0 0 0 0 0 0 0 0 0 0 0 0 0 0 0 0 0 0 0 0 0 0 0 0 0 1 4 6 6 7 8 8 8 7 6 5 3 1 0 1 2 2 1
0 0 0 0 0 0 0 0 0 0 0 0 0 0 0 0 0 0 0 0 0 0 0 0 0 0 1 3 6 7 7 9 9 8 7 6 6 5 3 1 2 2 2 2
0 0 0 0 0 0 0 0 0 0 0 0 0 0 0 0 0 0 0 0 0 0 0 0 0 0 1 3 5 7 8 9 10 9 8 7 6 6 5 3 2 3 3 3
0 0 0 0 0 0 0 0 0 0 0 0 0 0 0 0 0 0 0 0 0 0 0 0 0 0 1 2 4 6 8 9 10 9 8 7 6 6 6 4 3 3 3 3
0 0 0 0 0 0 0 0 0 0 0 0 0 0 0 0 0 0 0 0 0 0 0 0 0 0 0 1 3 5 7 8 9 9 9 7 6 6 6 5 3 2 2 1
0 0 0 0 0 0 0 0 0 0 0 0 0 0 0 0 0 0 0 0 0 0 0 0 0 0 0 0 1 4 6 7 8 8 8 7 6 6 6 6 3 1 0 0
0 0 0 0 0 0 0 0 0 0 0 0 0 0 0 0 0 0 0 0 0 0 0 0 0 0 0 0 1 3 4 5 6 7 7 7 6 6 6 5 3 1 0 0
0 0 0 0 0 0 0 0 0 0 0 0 0 0 0 0 0 0 0 0 0 0 0 0 0 0 0 0 1 2 3 4 4 5 5 5 4 3 4 4 2 1 0 0
0 0 0 0 0 0 0 0 0 0 0 0 0 0 0 0 0 0 0 0 0 0 0 0 0 0 0 0 1 2 3 3 3 3 3 3 2 1 2 2 1 0 0 0
0 0 0 0 0 0 0 0 0 0 0 0 0 0 0 0 0 0 0 0 0 0 0 0 0 0 0 0 0 1 3 3 3 3 3 2 1 0 1 1 0 0 0 0
0 0 0 0 0 0 0 0 0 0 0 0 0 0 0 0 0 0 0 0 0 0 0 0 0 0 0 0 0 1 2 3 3 3 3 2 1 0 0 0 0 0 0 0
0 0 0 0 0 0 0 0 0 0 0 0 0 0 0 0 0 0 0 0 0 0 0 0 0 0 0 0 0 0 1 3 3 3 3 2 1 0 0 0 0 0 0 0
0 0 0 0 0 0 0 0 0 0 0 0 0 0 0 0 0 0 0 0 0 0 0 0 0 0 0 0 0 0 1 2 3 3 3 2 1 0 0 0 0 0 0 0
0 0 0 0 0 0 0 0 0 0 0 0 0 0 0 0 0 0 0 0 0 0 0 0 0 0 0 0 0 0 1 2 3 3 3 2 1 0 0 0 0 0 0 0
0 0 0 0 0 0 0 0 0 0 0 0 0 0 0 0 0 0 0 0 0 0 0 0 0 0 0 0 0 0 1 2 3 3 3 2 1 0 0 0 0 0 0 0
0 0 0 0 0 0 0 0 0 0 0 0 0 0 0 0 0 0 0 0 0 0 0 0 0 0 0 0 0 0 1 2 3 2 1 1 0 0 0 0 0 0 0 0
0 0 0 0 0 0 0 0 0 0 0 0 0 0 0 0 0 0 0 0 0 0 0 0 0 0 0 0 0 0 1 2 2 1 0 0 0 0 0 0 0 0 0 0
0 0 0 0 0 0 0 0 0 0 0 0 0 0 0 0 0 0 0 0 0 0 0 0 0 0 0 0 0 0 0 1 1 0 0 0 0 0 0 0 0 0 0 0
0 0 0 0 0 0 0 0 0 0 0 0 0 0 0 0 0 0 0 0 0 0 0 0 0 0 0 0 0 0 0 0 0 0 0 0 0 0 0 0 0 0 0 0
0 0 0 0 0 0 0 0 0 0 0 0 0 0 0 0 0 0 0 0 0 0 0 0 0 0 0 0 0 0 0 0 0 0 0 0 0 0 0 0 0 0 0 0
0 0 0 0 0 0 0 0 0 0 0 0 0 0 0 0 0 0 0 0 0 0 0 0 0 0 0 0 0 0 0 0 0 0 0 0 0 0 0 0 0 0 0 0
0 0 0 0 0 0 0 0 0 0 0 0 0 0 0 0 0 0 0 0 0 0 0 0 0 0 0 0 0 0 0 0 0 0 0 0 0 0 0 0 0 0 0 0
0 0 0 0 0 0 0 0 0 0 0 0 0 0 0 0 0 0 0 0 0 0 0 0 0 0 0 0 0 0 0 0 0 0 0 0 0 0 0 0 0 0 0 0
Wind_Speed
2 2 6 8 9 6 5 5 7 7 4 4 9 12 12 7 7 8 8 8 8 9 7 5 5 5 5 4 4 5 5 5 4 3 3 3 3 3 2 2 3 3 3 4
1 7 8 5 5 5 5 6 7 6 3 5 7 13 11 9 9 10 10 10 10 8 5 5 5 5 6 6 6 5 5 6 5 4 3 3 3 3 2 2 2 3 3 4
7 5 4 4 4 5 7 8 8 6 5 3 4 10 9 7 7 7 9 9 9 9 9 7 6 7 6 7 7 6 6 6 5 4 3 2 2 1 1 2 2 2 3 4
6 5 3 4 5 6 9 6 6 5 3 5 3 7 9 6 7 9 10 9 10 9 8 7 7 7 7 8 7 6 6 6 6 5 5 6 5 4 4 3 3 2 3 3
5 3 5 7 7 5 6 4 4 5 4 5 5 6 10 4 7 10 10 9 9 8 8 8 8 8 7 6 6 6 6 6 6 6 6 6 5 4 2 3 3 3 2 3
5 3 4 5 3 4 2 2 2 1 1 7 9 7 10 6 9 7 7 7 7 6 6 7 6 5 5 5 5 5 6 6 6 7 6 7 6 5 5 4 4 3 2 2
4 5 4 2 1 2 2 3 1 2 3 9 5 7 11 8 7 7 8 8 6 5 5 5 6 6 5 6 6 6 6 6 6 7 7 7 7 7 7 6 6 5 3 3
4 6 5 4 5 5 5 7 7 6 6 5 4 9 8 5 4 4 5 5 4 5 5 5 6 7 7 7 6 6 7 6 6 6 6 6 6 5 5 5 5 5 5 4
5 5 2 2 2 5 4 6 6 3 2 4 7 7 8 4 2 2 1 2 4 5 5 5 5 5 6 7 7 7 7 6 6 6 5 5 5 5 5 5 4 3 3 3
4 4 4 2 1 2 4 4 3 4 5 7 7 6 6 5 5 3 3 4 5 4 4 4 4 4 5 5 5 5 6 6 5 5 5 4 4 5 4 4 4 4 3 3
2 3 3 1 6 7 4 4 4 4 5 5 6 8 5 6 5 5 6 5 5 5 5 4 3 3 3 3 3 4 5 4 4 4 4 3 4 4 4 4 4 4 4 4
2 2 3 6 4 3 4 6 6 6 6 6 6 8 3 4 4 4 5 4 3 4 4 3 3 2 2 3 3 4 4 4 4 4 4 4 3 4 4 4 4 4 4 4
3 4 0 4 3 1 3 4 5 3 3 5 7 9 3 3 3 3 4 4 3 3 3 2 2 3 3 3 3 3 3 4 3 3 4 3 3 4 4 4 4 4 4 4
2 4 7 9 6 5 5 5 5 5 5 7 10 10 8 7 6 5 5 4 3 3 3 3 3 3 3 3 3 3 3 3 3 4 4 4 4 4 4 3 4 4 4 4
3 4 5 7 5 4 7 8 9 11 11 10 10 11 12 8 8 7 5 4 3 3 3 4 4 3 3 3 3 3 3 3 3 4 4 4 3 3 3 3 3 3 3 3
3 4 2 6 5 5 7 11 11 13 12 14 12 15 10 8 6 6 6 5 5 5 5 5 4 4 4 4 4 4 4 3 3 4 4 3 2 2 3 3 3 3 2 2
4 4 3 7 4 3 11 13 12 10 9 10 16 15 6 5 7 9 7 6 6 6 6 6 6 5 5 5 4 5 5 3 3 3 3 3 3 3 3 3 3 3 3 3
6 5 4 3 1 10 11 4 8 11 10 10 10 7 7 10 9 7 5 5 6 6 6 6 5 5 4 3 3 3 2 3 3 3 3 3 3 3 3 3 3 3 2 3
7 6 4 4 7 11 10 5 6 8 11 9 11 10 8 6 4 5 3 4 6 6 6 5 5 4 3 3 3 2 3 3 3 3 3 3 3 3 3 3 3 2 2 2
3 5 5 5 6 10 8 3 3 4 9 6 7 9 7 2 4 7 3 3 5 4 4 3 2 2 3 3 2 3 3 3 4 4 3 3 3 3 4 4 3 2 2 3
3 4 7 8 8 11 7 3 3 5 8 3 4 5 5 7 8 6 4 3 3 3 3 1 1 2 3 2 3 3 3 4 3 2 2 2 2 3 3 3 2 3 3 2
8 7 7 6 8 11 2 3 6 6 3 2 2 3 4 6 5 4 3 3 2 2 2 1 1 1 1 1 3 3 3 2 1 2 2 2 2 2 3 3 3 3 3 3
8 9 7 9 9 3 3 5 3 1 3 3 3 4 3 4 4 4 4 2 2 2 2 1 1 1 1 1 2 3 2 1 1 1 2 2 2 2 3 4 4 3 3 3
5 3 3 6 7 5 4 3 3 3 3 3 4 4 3 4 5 4 3 2 2 2 2 1 0 0 1 1 1 1 1 1 2 2 2 2 2 2 2 2 3 3 4 4
5 4 4 7 6 4 4 4 4 3 3 4 4 3 3 4 4 3 2 2 2 2 2 1 1 1 2 2 1 0 1 1 2 2 2 2 2 2 2 2 3 3 3 5
4 6 7 8 5 5 5 2 2 3 4 4 5 5 4 3 3 2 2 2 2 2 2 2 2 2 2 2 1 1 0 2 2 2 2 2 2 2 2 2 1 1 2 3
Wind_Direction
157 136 209 213 209 223 217 227 249 253 244 225 240 255 257 237 228 233 230 224 225 229 228 214 203 193 189 192 189 187 183 186 176 178 177 176 186 191 192 193 192 187 186 177
111 230 230 223 226 241 243 247 256 276 271 242 255 263 260 238 225 223 223 226 225 228 228 220 207 195 191 193 195 192 191 187 188 189 188 185 178 186 191 191 192 192 189 184
204 235 214 214 235 242 245 230 238 254 307 289 281 281 261 252 231 234 231 227 224 220 219 217 208 205 198 196 196 197 195 190 188 180 166 147 132 137 175 200 200 199 185 181
231 246 220 221 236 224 247 240 236 246 259 268 222 272 265 244 246 235 232 229 226 223 217 213 208 205 203 203 198 196 191 188 187 179 178 175 178 182 198 199 197 192 188 183
233 216 211 226 237 221 239 254 243 246 232 262 250 249 271 241 244 242 233 229 227 220 210 207 206 202 198 193 190 193 187 188 186 184 185 185 188 188 174 175 182 193 195 189
245 245 219 221 247 217 233 345 329 299 161 252 226 218 267 227 222 236 232 226 224 220 214 212 208 193 188 183 180 183 183 190 188 185 185 189 188 181 172 179 186 196 202 200
271 261 247 213 252 270 174 118 3 312 248 245 208 217 248 242 228 218 222 225 220 210 203 202 198 190 185 185 186 187 185 189 189 187 190 193 191 188 189 190 192 189 197 210
215 253 224 205 196 197 206 173 184 210 230 262 228 232 248 253 257 247 230 221 209 203 202 201 200 194 187 188 189 189 190 191 189 189 194 193 191 191 196 195 192 196 201 206
201 242 255 228 218 166 180 214 207 197 264 266 250 260 291 294 294 302 267 212 215 212 208 206 203 200 195 190 192 192 190 189 189 191 193 194 193 192 195 194 190 197 204 197
182 242 258 255 159 231 198 175 146 176 200 247 263 245 245 265 261 261 248 241 241 230 222 214 207 205 203 199 195 191 186 187 184 186 193 195 199 199 196 189 190 193 194 187
174 194 270 239 202 199 181 193 194 192 197 203 252 257 225 227 237 233 237 241 235 226 223 220 219 213 199 191 191 189 186 182 178 183 189 192 197 194 190 192 195 193 188 184
166 154 239 244 249 245 207 201 180 196 230 220 235 260 255 249 256 242 248 254 250 231 221 216 214 205 191 189 187 187 187 185 188 184 185 190 191 188 190 197 196 189 188 188
147 139 15 319 306 309 236 224 208 198 195 216 227 259 287 309 301 276 260 254 252 243 230 217 206 206 208 203 198 196 194 191 185 178 184 189 187 188 195 196 192 188 187 186
142 180 199 219 232 196 227 231 209 180 206 230 234 254 278 287 287 283 270 257 247 242 231 222 223 227 221 211 206 204 207 196 181 173 181 194 198 196 197 188 182 185 186 186
150 218 235 257 264 225 232 231 215 216 220 223 243 245 255 254 257 260 260 256 260 267 253 233 231 235 229 222 220 213 212 202 184 175 184 203 203 190 179 176 176 177 182 187
164 203 231 267 265 259 260 248 230 232 234 239 253 260 258 262 258 258 257 250 252 253 251 250 244 236 228 222 219 216 215 205 183 180 191 193 178 177 180 178 168 166 169 172
185 171 207 255 278 309 260 235 217 222 222 219 238 249 266 259 250 244 240 232 240 247 245 242 238 231 227 224 217 213 212 192 181 187 184 180 176 179 183 177 166 170 173 169
188 191 206 240 225 238 243 211 206 221 234 231 245 257 248 247 250 249 236 233 247 252 247 242 237 234 232 223 216 212 191 179 181 185 186 185 181 184 175 173 177 176 169 174
196 187 196 202 238 264 276 238 194 211 245 232 241 258 266 278 276 259 257 257 255 252 252 241 228 223 221 212 199 178 174 173 177 195 202 197 186 183 178 182 185 177 167 171
184 185 193 208 224 242 253 247 207 186 255 244 227 248 260 255 248 257 285 291 285 278 266 260 238 204 200 208 177 172 185 180 195 207 211 201 188 183 186 190 185 169 166 170
182 196 210 221 237 256 264 280 137 187 252 282 231 241 238 226 236 261 287 295 287 281 287 277 235 209 206 188 169 183 193 207 209 200 197 191 186 186 185 176 167 157 156 151
193 195 206 202 226 249 227 147 188 232 278 300 273 249 242 250 263 267 272 283 297 299 308 297 227 254 253 178 172 192 213 220 174 176 187 188 183 178 167 159 160 157 155 154
208 203 198 203 222 246 173 198 232 260 270 284 282 283 263 266 273 279 277 287 304 294 288 292 204 244 294 226 178 205 237 173 160 174 192 189 173 170 165 164 164 162 163 167
239 221 218 250 257 260 257 265 286 277 271 295 301 299 284 277 283 287 286 302 316 320 314 327 2 286 286 291 261 216 205 171 167 186 195 183 172 169 161 167 173 178 180 180
220 199 231 253 268 291 270 261 279 297 315 320 317 305 291 283 287 283 281 292 306 319 329 331 294 276 284 299 301 285 150 153 178 191 193 186 181 180 179 184 193 197 205 199
199 202 211 239 238 235 258 281 307 303 304 305 307 313 322 311 296 304 299 310 316 318 327 315 302 293 290 296 295 300 212 177 175 191 191 189 187 181 182 181 194 233 217 215